Overview Statistics Trail Chart Weather Telemetry Raw packets
 

This is the latest recevied weather packets stored in our database for station/object W7BTL. If no packets are shown the sender has not sent any weather packets the latest 10 day(s).

<< 73 74 75 76 77 78 79 >>
Time Temp. Humidity Pressure Rain* Wind** Luminosity Snow
1788131398 33.33° C 43% 1009.6 hPa 0 mm - 523 W/m² -
1788131094 33.33° C 46% 1009.8 hPa 0 mm - 541 W/m² -
1788130792 33.33° C 46% 1009.7 hPa 0 mm - 563 W/m² -
1788130489 33.89° C 45% 1009.7 hPa 0 mm - 583 W/m² -
1788130188 33.33° C 46% 1010 hPa 0 mm - 602 W/m² -
1788129887 33.33° C 46% 1010 hPa 0 mm - 622 W/m² -
1788129584 33.33° C 47% 1010 hPa 0 mm - 640 W/m² -
1788129280 33.33° C 46% 1010.1 hPa 0 mm - 662 W/m² -
1788128979 33.89° C 46% 1010.2 hPa 0 mm - 680 W/m² -
1788128674 33.33° C 47% 1010.2 hPa 0 mm - 696 W/m² -
1788128370 33.33° C 48% 1010.1 hPa 0 mm - 713 W/m² -
1788128066 33.33° C 48% 1010.2 hPa 0 mm - 729 W/m² -
1788127761 33.33° C 47% 1010.4 hPa 0 mm - 746 W/m² -
1788127456 33.89° C 47% 1010.5 hPa 0 mm - 765 W/m² -
1788127153 33.89° C 46% 1010.3 hPa 0 mm - 773 W/m² -
1788126849 33.89° C 46% 1010.4 hPa 0 mm - 793 W/m² -
1788126543 33.89° C 45% 1010.8 hPa 0 mm - 811 W/m² -
1788126239 33.89° C 43% 1010.6 hPa 0 mm - 826 W/m² -
1788125939 33.89° C 44% 1010.9 hPa 0 mm - 838 W/m² -
1788125634 33.89° C 45% 1010.8 hPa 0 mm - 853 W/m² -
1788125330 33.89° C 44% 1011 hPa 0 mm - 855 W/m² -
1788125026 33.89° C 44% 1011 hPa 0 mm - 869 W/m² -
1788124725 33.89° C 43% 1011 hPa 0 mm - 881 W/m² -
1788124424 33.89° C 43% 1011.1 hPa 0 mm - 896 W/m² -
1788124121 34.44° C 41% 1011.1 hPa 0 mm - 905 W/m² -

* Rain latest hour (hover to see other rain measurements)
** Current wind speed in m/s (hover to see current wind gust speed)